Location: Unspecified
(51.0000°N, 12.0000°E)
Time: 05:43:12
(UTC+01:00)

ISS - Pass Details

Date: 13 January 2018
Orbit: 401 x 406 km, 51.6° (Epoch: 17 January)

Event Time Altitude Azimuth Distance (km) Brightness Sun altitude
Exits shadow 05:34:43 27° 148° (SSE) 826 -2.0 -23.6°
Drops below altitude 10° 05:36:28 10° 132° (SE) 1,461 -0.3 -23.4°
Sets 05:38:35 0° 126° (SE) 2,319 1.0 -23.0°
